[Iaude] MPEC F49: 2024 FL1 [a=1.18,e=0.34,i=8.3,H=24.3]

mpec at cfa.harvard.edu mpec at cfa.harvard.edu
Wed Mar 20 07:18:18 EDT 2024


M.P.E.C. 2024-F49                                Issued 2024 March 20, 11:08 UT

     The Minor Planet Electronic Circulars contain information on unusual
         minor planets, routine data on comets and natural satellites,
         and occasional editorial announcements.  They are published
    on behalf of Division F of the International Astronomical Union by the
          Minor Planet Center, Smithsonian Astrophysical Observatory,
                          Cambridge, MA 02138, U.S.A.
			  
             Prepared using the Tamkin Foundation Computer Network

                              MPC at CFA.HARVARD.EDU
            URL https://www.minorplanetcenter.net/    ISSN 1523-6714

                                    2024 FL1                                    


Observations:
     K24F01L* C2024 03 17.34553511 29 27.648+14 08 52.80         21.03wXEF049F52
     K24F01L  C2024 03 17.35798111 29 23.798+14 08 50.90         21.91wXEF049F52
     K24F01L  C2024 03 17.37038411 29 19.946+14 08 48.97         20.87wXEF049F52
     K24F01L  C2024 03 17.38286611 29 16.061+14 08 46.74         21.26wXEF049F52
     K24F01L  C2024 03 17.53675611 28 27.979+14 08 14.09         21.47GVEF049F51
     K24F01L  C2024 03 17.53757111 28 27.702+14 08 13.76         21.57GVEF049F51
     K24F01L  C2024 03 18.45711011 23 52.179+14 04 42.20         21.26GVEF049F51
     K24F01L  C2024 03 18.45901811 23 51.517+14 04 41.75         20.83GVEF049F51
     K24F01L KC2024 03 19.28309111 19 30.497+14 00 24.88         20.75GVEF049I52
     K24F01L KC2024 03 19.28736011 19 29.086+14 00 23.54         21.52GVEF049I52
     K24F01L KC2024 03 19.29164011 19 27.473+14 00 21.71         21.11GVEF049I52
     K24F01L KC2024 03 19.29590511 19 26.008+14 00 20.56         20.70GVEF049I52
     K24F01L 1C2024 03 19.35431911 19 08.442+14 00 12.88         21.16GVEF049T12
     K24F01L 1C2024 03 19.35756911 19 07.327+14 00 12.02         21.33GVEF049T12
     K24F01L  C2024 03 19.37145411 19 02.498+14 00 06.64         20.63GVEF049F51
     K24F01L  C2024 03 19.37227011 19 02.219+14 00 06.41         20.67GVEF049F51

Observer details:
F51 Pan-STARRS 1, Haleakala.  Observers J. Herman, T. Lowe, P. Minguez, A.
    Schultz, I. Smith.  Measurers K. Chambers, T. de Boer, J. Fairlamb, H.
    Gao, M. Huber, C.-C. Lin, E. Magnier, Y. Ramanjooloo, R. Wainscoat, R.
    Weryk.  1.8-m Ritchey-Chretien + CCD.
F52 Pan-STARRS 2, Haleakala.  Observers J. Herman, T. Lowe, P. Minguez, A.
    Schultz, I. Smith.  Measurers K. Chambers, T. de Boer, J. Fairlamb, H.
    Gao, M. Huber, C.-C. Lin, E. Magnier, Y. Ramanjooloo, R. Wainscoat, R.
    Weryk.  1.8-m Ritchey-Chretien + CCD.
I52 Steward Observatory, Mt. Lemmon Station.  Observer R. A. Kowalski.
    Measurers T. Beuden, V. F. Carvajal, D. Fay, J. B. Fazekas, D. C. Fuls, A.
    R. Gibbs, A. D. Grauer, H. Groeller, J. K. Hogan, R. A. Kowalski, S. M.
    Larson, G. J. Leonard, D. Rankin, R. L. Seaman, F. C. Shelly, K. W.
    Wierzchos.  1.0-m prime focus + CCD.
T12 University of Hawaii 88-inch telescope, Maunakea.  Observer J. Fairlamb.
    Measurers R. Weryk, J. Fairlamb, Y. Ramanjooloo, R. Wainscoat.  2.24-m
    f/10.1 reflector + CCD.

Orbital elements:
2024 FL1                                                 Earth MOID = 0.0008 AU
Epoch 2024 Mar. 31.0 TT = JDT 2460400.5                 Veres                   
M 303.71572              (2000.0)            P               Q                  
n   0.77244285     Peri.  276.56556     +0.19941828     +0.97983352             
a   1.1764094      Node     4.99063     -0.83210634     +0.17611236             
e   0.3375750      Incl.    8.32430     -0.51752429     +0.09439654             
P   1.28           H   24.36          G   0.15           U   8                  
Residuals in seconds of arc
240317 F52  0.1-  0.1+    240318 F51  0.2+  0.1-    240319 T12  0.2-  0.0
240317 F52  0.1-  0.1+    240318 F51  0.2-  0.0     240319 T12  0.1+  0.1+
240317 F52  0.1-  0.2+    240319 I52  0.1+  0.0     240319 F51  0.1+  0.0
240317 F52  0.1-  0.0     240319 I52  1.2+  0.1+    240319 F51  0.2+  0.1+
240317 F51  0.2+  0.0     240319 I52  0.6-  0.3-
240317 F51  0.1-  0.1-    240319 I52  0.3-  0.0

Ephemeris:
2024 FL1                 a,e,i = 1.18, 0.34, 8                   q = 0.7793
Date    TT    R. A. (2000) Decl.     Delta      r    Elong.  Phase     V
2024 02 19    12 26 30.0 +13 08 32   0.3459  1.2892   145.8    25.5    23.8
...
2024 03 05    12 10 05.2 +13 56 24   0.2329  1.2153   161.8    14.8    22.4
...
2024 03 13    11 47 43.7 +14 13 57   0.1825  1.1731   168.1    10.0    21.7
...
2024 03 19    11 21 02.2 +14 02 14   0.1499  1.1405   164.2    13.8    21.3
2024 03 20    11 15 31.6 +13 56 25   0.1450  1.1350   162.6    15.2    21.3
2024 03 21    11 09 40.3 +13 49 08   0.1402  1.1295   160.9    16.8    21.3
...
2024 03 27    10 26 18.8 +12 24 03   0.1147  1.0960   147.2    29.5    21.1
...
2024 04 04    09 03 24.7 +07 44 34   0.09186 1.0507   121.2    54.5    21.3
...
2024 04 19    05 54 12.5 -06 52 01   0.09531 0.9660    63.8   111.1    23.4

M. P. C. Staff               (C) Copyright 2024 MPC           M.P.E.C. 2024-F49





More information about the Iaude mailing list